Weather History for KASX - December, 2013

Change the Weather History Date:

Wednesday, December 18, 2013

  Actual Average (KHYR) Record (KHYR)
Temperature  
Mean Temperature 8 °F -  
Max Temperature 19 °F 26 °F - (-1)
Min Temperature -2 °F 13 °F - (-1)
Degree Days  
Heating Degree Days 56    
Moisture  
Dew Point 1 °F    
Average Humidity 74    
Maximum Humidity 84    
Minimum Humidity 59    
Precipitation  
Precipitation 0.00 in - - ()
Sea Level Pressure  
Sea Level Pressure 29.87 in    
Wind  
Wind Speed 5 mph (West)    
Max Wind Speed 8 mph    
Max Gust Speed -    
Visibility 10 miles    
Events      
Averages and records for this station are not official NWS values.
T = Trace of Precipitation, MM = Missing Value Source: NWS Daily Summary

Daily Weather History Graph

Daily Weather History Graph

Search for Another Location

Airport or City:

Trip Planner

Search our weather history database for the weather conditions in past years. The results will help you decide how hot, cold, wet, or windy it might be!

Date:

Astronomy

Dec. 18, 2013 Rise Set
Actual Time 7:43 AM CST 4:17 PM CST
Civil Twilight 7:08 AM CST 4:52 PM CST
Nautical Twilight 6:29 AM CST 5:31 PM CST
Astronomical Twilight 5:52 AM CST 6:08 PM CST
Moon 5:55 PM CST (12/18) 8:18 AM CST (12/18)
Length of Visible Light 9h 44m
Length of Day
8h 34m
Full, 98% of the Moon is Illuminated
Dec 18
Full
Dec 25
Last Quarter
Jan 1
New
Jan 7
First Quarter
Jan 15
Full

Hourly Weather History & Observations

Time (CST) Temp. Windchill Dew Point Humidity Pressure Visibility Wind Dir Wind Speed Gust Speed Precip Events Conditions
12:53 AM 3.0 °F -10.5 °F -5.1 °F 69% 30.09 in 10.0 mi WSW 8.1 mph - N/A   Clear
1:53 AM 1.0 °F -11.7 °F -7.1 °F 69% 30.08 in 10.0 mi SW 6.9 mph - N/A   Clear
2:53 AM -2.0 °F -12.2 °F -8.0 °F 76% 30.07 in 10.0 mi SW 4.6 mph - N/A   Clear
3:53 AM -2.0 °F -13.9 °F -8.0 °F 76% 30.07 in 10.0 mi WSW 5.8 mph - N/A   Clear
4:53 AM -0.0 °F -11.6 °F -7.1 °F 72% 30.06 in 10.0 mi SW 5.8 mph - N/A   Clear
5:53 AM -2.9 °F - -8.0 °F 79% 30.04 in 10.0 mi Calm Calm - N/A   Clear
6:53 AM 1.9 °F -5.6 °F -5.1 °F 72% 30.01 in 10.0 mi SSW 3.5 mph - N/A   Mostly Cloudy
7:53 AM 3.0 °F - -2.9 °F 76% 29.96 in 10.0 mi Calm Calm - N/A   Overcast
8:53 AM 5.0 °F - -2.0 °F 73% 29.93 in 10.0 mi Calm Calm - N/A   Overcast
9:53 AM 7.0 °F 0.1 °F -0.0 °F 73% 29.90 in 10.0 mi North 3.5 mph - N/A   Overcast
10:53 AM 10.0 °F 3.6 °F 1.9 °F 70% 29.86 in 10.0 mi NNE 3.5 mph - N/A   Overcast
11:53 AM 10.9 °F -0.8 °F 3.0 °F 70% 29.81 in 10.0 mi North 8.1 mph - N/A   Partly Cloudy
12:53 PM 14.0 °F 6.5 °F 3.9 °F 64% 29.77 in 10.0 mi North 4.6 mph - N/A   Clear
1:53 PM 17.1 °F 10.0 °F 7.0 °F 65% 29.74 in 10.0 mi North 4.6 mph - N/A   Clear
2:53 PM 19.0 °F - 7.0 °F 59% 29.72 in 10.0 mi Calm Calm - N/A   Clear
3:53 PM 17.1 °F - 6.1 °F 62% 29.71 in 10.0 mi Calm Calm - N/A   Clear
4:53 PM 12.9 °F - 6.1 °F 74% 29.72 in 10.0 mi Calm Calm - N/A   Clear
5:53 PM 10.0 °F - 6.1 °F 84% 29.73 in 10.0 mi Calm Calm - N/A   Clear
6:53 PM 10.0 °F 1.8 °F 5.0 °F 80% 29.75 in 10.0 mi West 4.6 mph - N/A   Clear
7:53 PM 10.0 °F 1.8 °F 5.0 °F 80% 29.75 in 10.0 mi WSW 4.6 mph - N/A   Clear
8:53 PM 9.0 °F 0.6 °F 3.9 °F 80% 29.76 in 10.0 mi West 4.6 mph - N/A   Clear
9:53 PM 8.1 °F -0.5 °F 3.9 °F 83% 29.78 in 10.0 mi West 4.6 mph - N/A   Clear
10:53 PM 7.0 °F -1.7 °F 3.0 °F 84% 29.80 in 10.0 mi WSW 4.6 mph - N/A   Clear
11:53 PM 10.9 °F 2.9 °F 6.1 °F 81% 29.83 in 10.0 mi WSW 4.6 mph - N/A   Clear